Printer-friendly version
Follow the MPC on Twitter Follow the MPC on Facebook The MPC blog
Minor Planet Center

MPEC 2008-F66 : 2008 FY6

The following Minor Planet Electronic Circular may be linked-to from your own Web pages, but must not otherwise be redistributed electronically.

A form allowing access to any MPEC is at the bottom of this page.


Read MPEC 2008-F65 Read MPEC 2008-G01


M.P.E.C. 2008-F66                                Issued 2008 Mar. 31, 21:06 UT

     The Minor Planet Electronic Circulars contain information on unusual
         minor planets and routine data on comets.  They are published
   on behalf of Commission 20 of the International Astronomical Union by the
          Minor Planet Center, Smithsonian Astrophysical Observatory,
                          Cambridge, MA 02138, U.S.A.

             Prepared using the Tamkin Foundation Computer Network

                              MPC@CFA.HARVARD.EDU
          URL http://www.cfa.harvard.edu/iau/mpc.html  ISSN 1523-6714

                                   2008 FY6

Observations:
     K08F06Y* C2008 03 30.30045 12 05 10.66 +05 50 32.6          19.3   EF066704
     K08F06Y  C2008 03 30.31226 12 05 08.40 +05 49 53.5          19.3   EF066704
     K08F06Y  C2008 03 30.32420 12 05 06.07 +05 49 14.6          19.3   EF066704
     K08F06Y  C2008 03 30.33621 12 05 03.75 +05 48 36.7          19.3   EF066704
     K08F06Y  C2008 03 30.86442 12 03 28.48 +05 20 16.0          18.9 R EF066473
     K08F06Y  C2008 03 30.87471 12 03 26.56 +05 19 43.0          18.9 R EF066473
     K08F06Y  C2008 03 30.88500 12 03 24.65 +05 19 10.3          19.0 R EF066473
     K08F06Y  C2008 03 30.91271 12 03 19.64 +05 17 40.7                 EF066J95
     K08F06Y IC2008 03 30.91687 12 03 18.85 +05 17 27.9                 EF066J95
     K08F06Y  C2008 03 30.92122 12 03 18.06 +05 17 13.6          19.7 R EF066J95
     K08F06Y  C2008 03 31.23095 12 02 22.71 +05 00 58.3          19.4 R EF066854
     K08F06Y  C2008 03 31.24136 12 02 20.77 +05 00 25.0          19.4 R EF066854
     K08F06Y  C2008 03 31.24657 12 02 19.85 +05 00 08.8          19.5 R EF066854
     K08F06Y  C2008 03 31.83002 12 00 37.66 +04 29 33.5                 EF066246
     K08F06Y  C2008 03 31.83067 12 00 37.44 +04 29 31.1                 EF066246
     K08F06Y  C2008 03 31.83128 12 00 37.32 +04 29 29.9                 EF066246
     K08F06Y  C2008 03 31.83189 12 00 37.24 +04 29 27.3                 EF066246
     K08F06Y  C2008 03 31.83249 12 00 37.14 +04 29 26.4                 EF066246
     K08F06Y  C2008 03 31.83345 12 00 36.99 +04 29 23.5                 EF066246
     K08F06Y  C2008 03 31.83409 12 00 36.86 +04 29 21.4          18.7 R EF066246

Observer details:
246 Klet Observatory-KLENOT.  Observer M. Tichy.  1.06-m KLENOT Telescope
    + CCD.
473 Remanzacco.  Observers L. Donato, M. Gonano, V. Gonano, E. Guido,
    V. Santini, G. Sostero.  0.45-m f/4.4 Newtonian reflector + CCD.
704 Lincoln Laboratory ETS, New Mexico.  Observers M. Bezpalko, D. Torres,
    R. Kracke, G. Spitz, J. Kistler.  Measurers J. Stuart, S. Scruggs.  1.0-m
    f/2.15 reflector + CCD.
854 Sabino Canyon Observatory, Tucson.  Observer J. E. McGaha.  0.36-m f/10.0
    Schmidt-Cassegrain + CCD.
J95 Great Shefford.  Observer P. Birtwhistle.  0.40-m f/6.0 Schmidt-Cassegrain
    + CCD.

Orbital elements:
2008 FY6                                                 Earth MOID = 0.2903 AU
Epoch 2008 May 14.0 TT = JDT 2454600.5                  MPC
M  54.78317              (2000.0)            P               Q
n   0.43099354     Peri.  104.49416     -0.40537573     -0.91111754
a   1.7357568      Node    10.39808     +0.59581139     -0.32505892
e   0.3699617      Incl.   24.34433     +0.69331040     -0.25338020
P   2.29           H   20.4           G   0.15           U   9
Residuals in seconds of arc
080330 704  0.0   0.6+    080330 J95  0.1-  0.1-    080331 246  0.5-  0.6-
080330 704  0.3+  0.3-    080330 J95  0.4-  0.3+    080331 246  0.7-  0.1+
080330 704  0.0   0.5-    080330 J95  0.1-  0.1-    080331 246  0.2-  0.6-
080330 704  0.1-  0.4+    080331 854  0.2+  0.4+    080331 246  0.1-  0.4+
080330 473  0.3+  0.3-    080331 854  0.2+  0.0     080331 246  0.2+  0.4+
080330 473  0.4+  0.6-    080331 854  1.0+  0.2+    080331 246  0.0   0.3+
080330 473  0.7+  0.5-    080331 246  1.0+  0.2-

Ephemeris:
2008 FY6                 a,e,i = 1.74, 0.37, 24                  q = 1.0936
Date    TT    R. A. (2000) Decl.     Delta      r     Elong.  Phase     V
2008 03 25    12 23.11   +10 53.0    0.326    1.317   167.2     9.7    19.2
2008 04 04    11 52.04   +01 52.5    0.378    1.366   162.9    12.4    19.7
2008 04 14    11 32.55   -04 52.6    0.455    1.417   150.5    20.4    20.5
2008 04 24    11 22.88   -09 40.8    0.550    1.469   139.6    26.3    21.1
2008 05 04    11 20.54   -13 09.4    0.659    1.521   130.5    30.3    21.7

Gareth V. Williams           (C) Copyright 2008 MPC           M.P.E.C. 2008-F66

Read MPEC 2008-F65 Read MPEC 2008-G01


MPEC number:

Enter an MPEC number in one of the following forms:

  • 1997-B01 (the full form)
  • J97B01 (the packed version of the full form)
  • B01 (the abbreviated form)

Valid HTML 4.01!